TimeCST,TemperatureF,Dew PointF,Humidity,Sea Level PressureIn,VisibilityMPH,Wind Direction,Wind SpeedMPH,Gust SpeedMPH,PrecipitationIn,Events,Conditions,WindDirDegrees,DateUTC
12:15 AM,30.2,26.6,86,30.05,7.0,SSW,10.4,-,N/A,,Clear,210,2013-01-08 06:15:00
12:35 AM,30.2,26.6,86,30.05,7.0,SSW,12.7,-,N/A,,Clear,210,2013-01-08 06:35:00
12:55 AM,30.2,26.6,86,30.05,7.0,SSW,11.5,-,N/A,,Clear,210,2013-01-08 06:55:00
1:15 AM,30.2,26.6,86,30.06,7.0,SSW,10.4,-,N/A,,Clear,200,2013-01-08 07:15:00
1:35 AM,30.2,26.6,86,30.06,7.0,SSW,10.4,-,N/A,,Clear,210,2013-01-08 07:35:00
1:55 AM,30.2,26.6,86,30.06,7.0,SSW,9.2,-,N/A,,Clear,210,2013-01-08 07:55:00
2:15 AM,30.2,26.6,86,30.06,7.0,SW,8.1,-,N/A,,Clear,220,2013-01-08 08:15:00
2:35 AM,30.2,26.6,86,30.06,7.0,SSW,8.1,-,N/A,,Clear,210,2013-01-08 08:35:00
2:55 AM,28.4,26.6,93,30.06,7.0,SW,5.8,-,N/A,,Clear,220,2013-01-08 08:55:00
3:15 AM,28.4,26.6,93,30.06,7.0,SSW,6.9,-,N/A,,Clear,210,2013-01-08 09:15:00
3:35 AM,28.4,26.6,93,30.06,7.0,SSW,4.6,-,N/A,,Clear,210,2013-01-08 09:35:00
3:55 AM,28.4,26.6,93,30.06,7.0,South,3.5,-,N/A,,Clear,190,2013-01-08 09:55:00
4:15 AM,28.4,26.6,93,30.06,5.0,Calm,Calm,-,N/A,,Clear,0,2013-01-08 10:15:00
4:35 AM,28.4,26.6,93,30.06,5.0,SSW,3.5,-,N/A,,Clear,200,2013-01-08 10:35:00
5:45 AM,24.8,23.0,93,30.08,5.0,SSW,4.6,-,N/A,,Clear,200,2013-01-08 11:45:00
6:45 AM,24.8,23.0,93,30.09,5.0,SSW,4.6,-,N/A,,Clear,200,2013-01-08 12:45:00
8:45 AM,26.6,24.8,93,30.11,5.0,SSW,6.9,-,N/A,,Scattered Clouds,200,2013-01-08 14:45:00
9:45 AM,28.4,24.8,86,30.11,5.0,SSW,5.8,-,N/A,,Scattered Clouds,200,2013-01-08 15:45:00
10:45 AM,30.2,24.8,80,30.10,7.0,SSW,5.8,-,N/A,,Scattered Clouds,200,2013-01-08 16:45:00
11:45 AM,35.6,26.6,70,30.07,7.0,South,6.9,-,N/A,,Scattered Clouds,180,2013-01-08 17:45:00
12:45 PM,37.4,26.6,65,30.05,7.0,SSE,8.1,-,N/A,,Mostly Cloudy,160,2013-01-08 18:45:00
1:45 PM,37.4,26.6,65,30.05,7.0,South,9.2,-,N/A,,Mostly Cloudy,180,2013-01-08 19:45:00
2:45 PM,37.4,28.4,70,30.04,10.0,South,8.1,-,N/A,,Mostly Cloudy,170,2013-01-08 20:45:00
3:45 PM,35.6,26.6,70,30.04,10.0,SSE,10.4,-,N/A,,Mostly Cloudy,160,2013-01-08 21:45:00
4:45 PM,35.6,28.4,75,30.02,10.0,SSE,4.6,-,N/A,,Mostly Cloudy,150,2013-01-08 22:45:00
5:45 PM,35.6,28.4,75,30.08,10.0,SSE,10.4,-,N/A,,Clear,160,2013-01-08 23:45:00
6:45 PM,68.0,28.4,23,30.00,10.0,South,8.1,-,N/A,,Clear,170,2013-01-09 00:45:00
7:45 PM,35.6,28.4,75,29.99,10.0,South,10.4,-,N/A,,Clear,170,2013-01-09 01:45:00
8:15 PM,33.8,30.2,87,29.98,10.0,South,6.9,-,N/A,,Mostly Cloudy,190,2013-01-09 02:15:00
8:35 PM,35.6,30.2,81,29.99,10.0,SSW,9.2,-,N/A,,Overcast,200,2013-01-09 02:35:00
8:45 PM,35.6,28.4,75,29.99,10.0,South,8.1,-,N/A,,Overcast,180,2013-01-09 02:45:00
8:55 PM,35.6,30.2,81,29.99,10.0,South,10.4,17.3,N/A,,Mostly Cloudy,190,2013-01-09 02:55:00
9:15 PM,35.6,30.2,81,29.99,10.0,South,12.7,20.7,N/A,,Scattered Clouds,190,2013-01-09 03:15:00
9:35 PM,35.6,30.2,81,29.98,10.0,South,10.4,17.3,N/A,,Scattered Clouds,190,2013-01-09 03:35:00
9:55 PM,35.6,30.2,81,29.98,10.0,South,11.5,18.4,N/A,,Mostly Cloudy,190,2013-01-09 03:55:00
10:15 PM,35.6,30.2,81,29.97,10.0,SSW,9.2,17.3,N/A,,Mostly Cloudy,200,2013-01-09 04:15:00
10:35 PM,35.6,28.4,75,29.97,10.0,SSW,10.4,18.4,N/A,,Mostly Cloudy,200,2013-01-09 04:35:00
10:55 PM,35.6,28.4,75,29.96,10.0,SSW,13.8,20.7,N/A,,Mostly Cloudy,200,2013-01-09 04:55:00
11:15 PM,35.6,28.4,75,29.95,10.0,SSW,17.3,25.3,N/A,,Mostly Cloudy,210,2013-01-09 05:15:00
11:35 PM,35.6,28.4,75,29.95,10.0,SSW,15.0,21.9,N/A,,Scattered Clouds,200,2013-01-09 05:35:00
11:55 PM,35.6,30.2,81,29.94,10.0,SSW,15.0,21.9,N/A,,Clear,210,2013-01-09 05:55:00